GW0245 Weather Reports


Display with metric or nautical units.
time (UTC)temp
F
wind
direction
speed
MPH
gust
MPH
rain 1hr
in
rain 24hr
in
rain mn
in
humidity
%
barometer
mb
20260906014606 83 255 2.0 9.0 0.00 0.00 0.00 40 1017.4
20260906013111 83 269 4.0 11.0 0.00 0.00 0.00 40 1017.4
20260906011609 83 262 8.0 12.0 0.00 0.00 0.00 41 1017.5
20260906010107 84 262 5.0 11.0 0.00 0.00 0.00 40 1017.5
20260906004612 84 293 7.0 12.0 0.00 0.00 0.00 40 1017.3
20260906003106 84 222 4.0 13.0 0.00 0.00 0.00 39 1017.2
20260906001609 85 0 3.0 10.0 0.00 0.00 0.00 39 1017.3
20260906000107 85 0 0.0 4.0 0.00 0.00 0.00 40 1017.3
20260905234604 85 196 2.0 11.0 0.00 0.00 0.00 39 1017.3
20260905233111 84 235 2.0 11.0 0.00 0.00 0.00 41 1017.4
20260905231609 83 208 7.0 13.0 0.00 0.00 0.00 41 1017.4
20260905230105 84 235 6.0 12.0 0.00 0.00 0.00 44 1017.4
20260905224559 85 176 3.0 10.0 0.00 0.00 0.00 39 1017.3
20260905223105 86 216 6.0 17.0 0.00 0.00 0.00 38 1017.3
20260905221604 87 173 8.0 14.0 0.00 0.00 0.00 36 1017.3
20260905220105 89 164 4.0 9.0 0.00 0.00 0.00 33 1017.2
20260905214603 89 186 5.0 13.0 0.00 0.00 0.00 32 1017.4
20260905213108 90 206 4.0 10.0 0.00 0.00 0.00 30 1017.5
20260905211602 91 201 3.0 12.0 0.00 0.00 0.00 30 1017.5
20260905210120 92 217 2.0 8.0 0.00 0.00 0.00 30 1017.6
20260905204606 92 224 6.0 13.0 0.00 0.00 0.00 30 1017.8
20260905203101 90 238 5.0 11.0 0.00 0.00 0.00 31 1017.8
20260905201607 92 160 5.0 12.0 0.00 0.00 0.00 29 1017.9
20260905200117 92 92 5.0 9.0 0.00 0.00 0.00 29 1018.2
20260905194612 91 289 1.0 9.0 0.00 0.00 0.00 31 1018.4
20260905193103 90 61 1.0 10.0 0.00 0.00 0.00 30 1018.5
20260905191609 90 95 5.0 10.0 0.00 0.00 0.00 31 1018.7
20260905190112 89 53 1.0 11.0 0.00 0.00 0.00 33 1019.1
20260905184624 88 0 1.0 7.0 0.00 0.00 0.00 35 1019.2
20260905183108 87 69 2.0 6.0 0.00 0.00 0.00 36 1019.5
20260905181607 86 58 1.0 5.0 0.00 0.00 0.00 37 1019.5
20260905180104 85 47 2.0 6.0 0.00 0.00 0.00 38 1019.7
20260905174600 84 0 0.0 4.0 0.00 0.00 0.00 39 1019.8
20260905173116 83 63 1.0 5.0 0.00 0.00 0.00 41 1020.2
20260905171625 83 154 1.0 6.0 0.00 0.00 0.00 40 1020.2
20260905164606 81 77 1.0 4.0 0.00 0.00 0.00 42 1020.3
20260905163114 80 61 1.0 3.0 0.00 0.00 0.00 43 1020.2
20260905161604 79 76 1.0 5.0 0.00 0.00 0.00 41 1020.1
20260905154618 78 51 0.0 2.0 0.00 0.00 0.00 42 1020.1
20260905153114 76 0 0.0 3.0 0.00 0.00 0.00 43 1020.1
20260905151615 76 76 1.0 4.0 0.00 0.00 0.00 44 1020.1
20260905150105 76 42 0.0 4.0 0.00 0.00 0.00 42 1020.0
20260905144603 76 0 0.0 0.0 0.00 0.00 0.00 42 1019.9
20260905143105 75 0 0.0 0.0 0.00 0.00 0.00 44 1019.8
20260905141603 73 0 0.0 0.0 0.00 0.00 0.00 49 1019.5
20260905140105 70 0 0.0 0.0 0.00 0.00 0.00 51 1019.5
20260905134602 67 0 0.0 1.0 0.00 0.00 0.00 56 1019.2
20260905133105 66 0 0.0 1.0 0.00 0.00 0.00 56 1019.0
20260905131610 65 0 0.0 2.0 0.00 0.00 0.00 55 1018.8
20260905124601 65 0 0.0 1.0 0.00 0.00 0.00 55 1018.4
20260905123103 65 271 0.0 2.0 0.00 0.00 0.00 55 1018.2
20260905121605 65 0 0.0 4.0 0.00 0.00 0.00 55 1018.2
20260905120105 64 0 0.0 2.0 0.00 0.00 0.00 56 1018.2
20260905114602 65 0 0.0 2.0 0.00 0.00 0.00 55 1018.2
20260905113107 66 0 0.0 2.0 0.00 0.00 0.00 53 1018.2
20260905111646 67 0 0.0 3.0 0.00 0.00 0.00 53 1018.2
20260905104605 66 0 0.0 1.0 0.00 0.00 0.00 55 1017.9
20260905103104 67 0 0.0 2.0 0.00 0.00 0.00 56 1017.8
20260905101607 68 0 0.0 2.0 0.00 0.00 0.00 55 1017.7
20260905100114 68 0 1.0 3.0 0.00 0.00 0.00 56 1017.7
20260905094607 68 0 0.0 2.0 0.00 0.00 0.00 59 1017.8
20260905093107 68 240 0.0 1.0 0.00 0.00 0.00 60 1017.8
20260905091559 69 0 0.0 3.0 0.00 0.00 0.00 60 1017.8
20260905090105 69 0 0.0 2.0 0.00 0.00 0.00 59 1017.7
20260905084607 66 194 0.0 1.0 0.00 0.00 0.00 62 1017.8
20260905083103 67 0 0.0 0.0 0.00 0.00 0.00 61 1017.9
20260905081601 69 0 0.0 1.0 0.00 0.00 0.00 59 1018.0
20260905080129 69 0 0.0 0.0 0.00 0.00 0.00 58 1018.1
20260905074605 70 0 0.0 0.0 0.00 0.00 0.00 56 1018.1
20260905073104 70 0 0.0 2.0 0.00 0.00 0.00 56 1018.0
20260905071600 71 0 0.0 1.0 0.00 0.00 0.00 55 1017.9
20260905070110 71 0 0.0 0.0 0.00 0.00 0.00 53 1017.8
20260905064606 73 0 0.0 1.0 0.00 0.00 0.00 53 1017.9
20260905063103 75 0 0.0 1.0 0.00 0.00 0.00 48 1017.9
20260905061604 76 0 0.0 7.0 0.00 0.00 0.00 47 1017.7
20260905060100 76 256 2.0 6.0 0.00 0.00 0.00 46 1017.6
20260905054608 77 242 1.0 6.0 0.00 0.00 0.00 46 1017.5
20260905053111 76 250 2.0 7.0 0.00 0.00 0.00 46 1017.5
20260905051601 76 251 2.0 8.0 0.00 0.00 0.00 46 1017.5
20260905050108 76 227 3.0 8.0 0.00 0.00 0.00 46 1017.5
20260905044608 76 222 2.0 7.0 0.00 0.00 0.00 46 1017.5
20260905043102 77 250 1.0 8.0 0.00 0.00 0.00 45 1017.5
20260905041606 77 248 3.0 8.0 0.00 0.00 0.00 45 1017.5
20260905040107 77 248 3.0 8.0 0.00 0.00 0.00 45 1017.3
20260905034619 77 257 2.0 8.0 0.00 0.00 0.00 45 1017.3
20260905033119 77 239 3.0 7.0 0.00 0.00 0.00 45 1017.2
20260905031614 77 238 2.0 7.0 0.00 0.00 0.00 45 1017.0
20260905030106 78 228 2.0 6.0 0.00 0.00 0.00 45 1016.8
20260905024605 79 219 2.0 8.0 0.00 0.00 0.00 44 1016.6
20260905023127 79 263 3.0 8.0 0.00 0.00 0.00 43 1016.3
20260905021605 80 227 2.0 5.0 0.00 0.00 0.00 43 1016.2